User: anonymous   Login
Location: Caltech
(34.1382°N, 118.1253°W)
Time: 16:34:03
(UTC-07:00)
Language:

Cosmos 1975 - Orbit

View from above orbital plane
View from above orbital plane
View from above satellite
View from above satellite

Ground track
Ground track

The orbit data is extracted from the following two-line orbital elements,

1 19573U 88093A   17292.39984475 +.00000194 +00000-0 +11873-4 0  9991
2 19573 082.5217 225.2897 0012897 231.6327 128.3742 15.04295127557345
Epoch (UTC): 19 October 2017 09:35:46
Eccentricity: 0.0012897
inclination: 82.5217°
perigee height: 545 km
apogee height: 562 km
right ascension of ascending node: 225.2897°
argument of perigee: 231.6327°
revolutions per day: 15.04295127
mean anomaly at epoch: 128.3742°
orbit number at epoch: 55734

The dashed part of the orbit path shows where the satellite is in the earth's shadow,  

DLR